• Join FlightAware (Why Join?)
  • Login
  • US Flag 
05:16PM EST


 

Airport Tracker/Info


-or-


 

Live Flight TrackerFlight Track Log ✈ N1013 ✈ 12-May-2013 ✈ KSNA - KSFO

Flight Track Log - Related Links

Times and Time Zones

All times are in EDT time to prevent confusion due to time zone crossing. See the N1013 flight status page for this flight to view local times or setup timezone preferences in your user account.

Time Position Orientation Groundspeed Altitude Reporting Facility
EDT Latitude Longitude Course Direction KTS MPH feet Rate Location/Type
10:13PM 33.6333 -117.9000 320° Northwest 196 226 2,700  Level Southern California TRACON
10:14PM 33.5667 -117.9000 180° South 232 267 5,000 2,127 Climbing Southern California TRACON
10:14PM 33.5561 -117.9025 191° South 220 253 5,500 3,630 Climbing Los Angeles Center
10:15PM 33.4817 -117.9617 214° Southwest 262 302 9,900 3,659 Climbing Los Angeles Center
10:16PM 33.4136 -118.0192 215° Southwest 285 328 13,000 2,780 Climbing Los Angeles Center
10:17PM 33.3247 -118.0597 201° Southwest 336 387 15,600 1,645 Climbing Los Angeles Center
10:18PM 33.6984 -118.7817 320° Northwest  Level FlightAware Approximate
10:18PM 33.2739 -118.1522 237° Southwest 356 410 16,400  Level Los Angeles Center
10:19PM 33.3111 -118.2586 293° West 346 398 17,000 878 Climbing Los Angeles Center
10:20PM 33.3525 -118.3653 295° West 349 402 18,200 1,597 Climbing Los Angeles Center
10:21PM 33.4108 -118.4603 306° West 360 414 20,300 1,902 Climbing Los Angeles Center
10:22PM 33.4831 -118.5478 315° West 365 420 22,100 1,659 Climbing Los Angeles Center
10:23PM 33.5556 -118.6342 315° West 365 420 23,700 1,984 Climbing Los Angeles Center
10:24PM 33.6303 -118.7208 316° Northwest 369 425 26,200 2,732 Climbing Los Angeles Center
10:25PM 33.7225 -118.8306 315° West 383 441 29,300 2,488 Climbing Los Angeles Center
10:26PM 33.8008 -118.9231 316° Northwest 391 450 31,300 1,935 Climbing Los Angeles Center
10:28PM 33.8819 -119.0206 315° West 404 465 33,300 1,659 Climbing Los Angeles Center
10:29PM 33.9639 -119.1175 316° Northwest 411 473 34,700 1,366 Climbing Los Angeles Center
10:30PM 34.0486 -119.2206 315° West 428 493 36,100 1,306 Climbing Los Angeles Center
10:31PM 34.1353 -119.3247 315° West 436 502 37,400 927 Climbing Los Angeles Center
10:32PM 34.2244 -119.4294 316° Northwest 444 511 38,000 293 Climbing Los Angeles Center
10:33PM 34.3153 -119.5389 315° West 456 525 38,000  Level Los Angeles Center
10:34PM 34.4239 -119.6697 315° West 461 531 38,000  Level Los Angeles Center
10:35PM 34.5133 -119.7775 315° West 456 525 38,000  Level Los Angeles Center
10:36PM 34.6103 -119.8811 319° Northwest 459 528 38,000  Level Los Angeles Center
10:37PM 34.7039 -119.9822 318° Northwest 453 521 38,000  Level Los Angeles Center
10:38PM 34.7769 -120.1061 306° West 464 534 38,000  Level Los Angeles Center
10:39PM 34.8461 -120.2589 299° West 467 537 38,000  Level Los Angeles Center
10:40PM 34.9053 -120.3950 298° West 465 535 38,000  Level Los Angeles Center
10:41PM 34.9661 -120.5325 298° West 468 539 38,000  Level Los Angeles Center
10:42PM 35.0256 -120.6647 299° West 454 522 38,000  Level Los Angeles Center
10:43PM 35.0856 -120.7892 301° West 433 498 38,000  Level Los Angeles Center
10:44PM 35.1500 -120.9122 303° West 432 497 38,000  Level Los Angeles Center
10:45PM 35.2703 -121.0050 328° Northwest 429 494 38,000  Level Los Angeles Center
10:46PM 35.3750 -121.0761 331° Northwest 430 495 38,000  Level Los Angeles Center
10:46PM 35.4150 -121.1011 333° Northwest 424 488 38,000  Level Oakland Center
10:47PM 35.5214 -121.1675 333° Northwest 426 490 38,000  Level Oakland Center
10:48PM 35.6283 -121.2372 332° Northwest 430 495 38,000 -49 Level Oakland Center
10:49PM 35.7347 -121.3047 333° Northwest 430 495 37,900 -738 Descending Oakland Center
10:50PM 35.8419 -121.3731 333° Northwest 432 497 36,500 -1,672 Descending Oakland Center
10:51PM 35.9497 -121.4425 332° Northwest 434 499 34,500 -2,213 Descending Oakland Center
10:52PM 36.0636 -121.5175 332° Northwest 456 525 32,000 -2,488 Descending Oakland Center
10:54PM 36.1853 -121.5939 333° Northwest 481 554 29,400 -2,537 Descending Oakland Center
10:55PM 36.3039 -121.6717 332° Northwest 482 555 26,800 -2,508 Descending Oakland Center
10:56PM 36.4203 -121.7472 332° Northwest 475 547 24,300 -2,557 Descending Oakland Center
10:57PM 36.5431 -121.8281 332° Northwest 464 534 21,600 -2,565 Descending Oakland Center
10:58PM 36.6833 -121.9167 333° Northwest 437 503 18,700 -2,308 Descending Northern Cal TRACON
10:59PM 36.7833 -121.9667 338° Northwest 409 471 16,600 -2,000 Descending Northern Cal TRACON
11:00PM 36.8833 -122.0000 345° North 383 441 14,700 -1,617 Descending Northern Cal TRACON
11:01PM 36.9614 -122.0203 348° North 365 420 13,500 -1,603 Descending Oakland Center
11:02PM 37.0750 -122.0497 348° North 348 400 11,600 -1,672 Descending Oakland Center
11:03PM 37.1631 -122.0731 348° North 327 376 10,100 -1,525 Descending Oakland Center
11:04PM 37.2469 -122.0961 348° North 313 360 8,500 -1,525 Descending Oakland Center
11:05PM 37.3283 -122.1169 348° North 302 348 7,000 -1,426 Descending Oakland Center
11:06PM 37.4067 -122.1381 348° North 292 336 5,600 -1,415 Descending Oakland Center
11:07PM 37.4831 -122.1581 348° North 284 327 4,100 -878 Descending Oakland Center
11:08PM 37.5397 -122.1961 332° Northwest 237 273 3,800 -787 Descending Oakland Center
11:09PM 37.5653 -122.2486 302° West 197 227 2,500 -1,180 Descending Oakland Center
11:10PM 37.5839 -122.2933 298° West 168 193 1,400 -934 Descending Oakland Center
11:11PM 37.5992 -122.3300 298° West 141 162 600 -590 Descending Oakland Center
11:12PM 37.6172 -122.3700 300° West 130 150 200 -393 Descending Oakland Center
11:14PM 37.6167 -122.3667 322° Northwest  Level FlightAware Approximate